Location: Rumah Geringgi
(3.1667°N, 113.1667°E)
Time: 10:45:57
(UTC+00:00)

GPS 2-15 Rocket1 - Pass Details

Date: 03 August 2024
Orbit: 615 x 661 km, 19.8° (Epoch: 13 September)

Event Time Altitude Azimuth Distance (km) Brightness Sun altitude
Exits shadow 21:55:33 10° 260° (W) 1,996 5.0 -8.1°
Reaches altitude 10° 21:55:37 10° 259° (W) 1,972 5.0 -8.1°
Maximum altitude 21:59:35 28° 200° (SSW) 1,175 4.2 -7.1°
Drops below altitude 10° 22:03:28 11° 142° (SE) 1,962 5.9 -6.2°
Sets 22:06:15 0° 129° (SE) 2,916 7.0 -5.6°
